Flag for Ireland

Past Weather in Dublin, Ireland — Yesterday and Last 2 Weeks

Now
52 °F

Passing clouds.


Feels Like: 50 °F
Forecast: 64 / 52 °F
Wind: 6 mph from Southwest

Location: Dublin Airport
Current Time: Sep 21, 2020 at 8:14:07 am
Latest Report: Sep 21, 2020 at 7:30 am
Visibility: N/A
Pressure30.07 "Hg
Humidity: 94%
Dew Point: 50 °F
Location of DublinLocation

Past Weather in Dublin — Graph

°F

Dublin Temperature Yesterday

Maximum temperature yesterday: 59 °F (at 12:30 pm)
Minimum temperature yesterday: 41 °F (at 11:30 pm)
Average temperature yesterday: 54 °F

High & Low Weather Summary for the Past Weeks

 TemperatureHumidityPressure
High73 °F (Sep 15, 4:30 pm)100% (Sep 6, 8:30 am)30.39 "Hg (Sep 6, 8:30 am)
Low41 °F (Sep 20, 11:30 pm)59% (Sep 9, 4:00 pm)29.83 "Hg (Sep 11, 9:30 am)
Average58 °F83%30.14 "Hg
* Reported Sep 6 7:00 am — Sep 21 7:00 am, Dublin. Weather by CustomWeather, © 2020

Note: Actual official high and low records may vary slightly from our data, if they occured in-between our weather recording intervals... More about our weather records

Dublin Weather History for the Previous 24 Hours

Scroll right to see more
 ConditionsComfort  
Time TempWeatherWind HumidityBarometerVisibility
7:00 am
Mon, Sep 21
52 °FPassing clouds.7 mph88%30.07 "HgN/A
6:30 am52 °FPassing clouds.8 mph94%30.07 "HgN/A
6:00 am52 °FPassing clouds.7 mph88%30.07 "HgN/A
5:30 am52 °FPassing clouds.6 mph94%30.07 "HgN/A
5:00 am48 °FPassing clouds.5 mph100%30.07 "HgN/A
4:30 am46 °FPassing clouds.5 mph100%30.07 "Hg6 mi
3:30 am45 °FPassing clouds.6 mph100%30.07 "Hg6 mi
3:00 am45 °FPassing clouds.5 mph100%30.09 "HgN/A
2:30 am45 °FFog.5 mph93%30.09 "Hg3 mi
1:30 am43 °FFog.5 mph100%30.09 "Hg1 mi
1:00 am43 °FFog.3 mph100%30.09 "Hg1 mi
12:30 am43 °FLight fog.3 mph100%30.09 "Hg1 mi
12:00 am41 °FFog.1 mph93%30.12 "Hg2 mi
11:30 pm
Sun, Sep 20
41 °FFog.3 mph93%30.12 "Hg1 mi
11:00 pm43 °FFog.3 mph93%30.12 "Hg1 mi
10:30 pm48 °FPassing clouds.6 mph94%30.12 "HgN/A
10:00 pm48 °FPassing clouds.5 mph94%30.12 "HgN/A
9:30 pm48 °FPartly cloudy.5 mph94%30.12 "HgN/A
9:00 pm48 °FPartly cloudy.5 mph94%30.12 "HgN/A
8:30 pm50 °FPassing clouds.2 mph94%30.12 "HgN/A
8:00 pm50 °FPassing clouds.6 mph94%30.12 "HgN/A
7:30 pm52 °FPassing clouds.7 mph88%30.15 "HgN/A
7:00 pm55 °FScattered clouds.6 mph88%30.15 "HgN/A
6:30 pm55 °FScattered clouds.8 mph82%30.15 "HgN/A
6:00 pm57 °FPartly sunny.9 mph77%30.15 "HgN/A
5:30 pm57 °FPartly sunny.10 mph77%30.15 "HgN/A
5:00 pm57 °FPartly sunny.9 mph77%30.15 "HgN/A
4:30 pm57 °FPartly sunny.12 mph77%30.15 "HgN/A
4:00 pm57 °FPartly sunny.12 mph77%30.18 "HgN/A
3:30 pm57 °FPartly sunny.12 mph77%30.18 "HgN/A
3:00 pm57 °FPartly sunny.13 mph77%30.15 "HgN/A
2:30 pm57 °FPartly sunny.14 mph77%30.18 "HgN/A
2:00 pm57 °FPartly sunny.14 mph77%30.18 "HgN/A
1:30 pm57 °FPartly sunny.15 mph77%30.18 "HgN/A
1:00 pm57 °FPartly sunny.16 mph77%30.18 "HgN/A
12:30 pm59 °FPartly sunny.15 mph77%30.18 "HgN/A
12:00 pm57 °FPartly sunny.15 mph77%30.18 "HgN/A
11:30 am57 °FPartly sunny.14 mph77%30.18 "HgN/A
11:00 am55 °FPartly sunny.13 mph82%30.21 "HgN/A
10:30 am55 °FPartly sunny.15 mph82%30.21 "HgN/A
10:00 am55 °FPartly sunny.15 mph82%30.21 "HgN/A
9:30 am55 °FPartly sunny.15 mph82%30.21 "HgN/A
9:00 am55 °FPartly sunny.13 mph82%30.21 "HgN/A
8:30 am54 °FPartly sunny.16 mph82%30.21 "HgN/A
8:00 am54 °FPartly sunny.15 mph82%30.21 "HgN/A
Weather by CustomWeather, © 2020

See weather overview